Es ist keine erhöhte Aufmerksamkeit aufgrund des Wetters notwendig.    Es gibt keine Warnungen.
Webcam Vorhersage DWD Regenradar Wetterlage NRW Blitze Wind GFS-Modell
webcam


Kleve - Düffelward SSO more information Kleve - Düffelward SSO


Goch more information Goch


Weitere Templates dieser Seite und andere Webseiten:

Meteotemplate

Awekas - Template

weather34 - Template

Wetter aus Willich

Hubert Reyers' Wetter


te
World Weather Websites
Bo-Rox Wetter Topsites List
Stat Counter
 

METAR-Meldungen aus der Umgebung

   
EHDL - Nijmegen
Aktualisierung: 24-11-2020 12:25
Bewölkt  
Bewölkt  
   Wind: Süden 14.8 km/h
Wind: Süden 14.8 km/h
Temperatur: 10°C
Gefühlt: 8°C
Taupunkt: 8°C
Luftfeuchte: 88%
Luftdruck: 1022 hPa
Bewölkt: Bewölkt
Sichtbarkeit: More than 10 km
Bewölkung: Bewölkt 1219.2 m
EHDL 241125Z AUTO 18008KT 130V250 9999 OVC040 10/08 Q1022 BLU
EHDL - Arnhem
Aktualisierung: 24-11-2020 12:25
Bewölkt  
Bewölkt  
   Wind: Süden 14.8 km/h
Wind: Süden 14.8 km/h
Temperatur: 10°C
Gefühlt: 8°C
Taupunkt: 8°C
Luftfeuchte: 88%
Luftdruck: 1022 hPa
Bewölkt: Bewölkt
Sichtbarkeit: More than 10 km
Bewölkung: Bewölkt 1219.2 m
EHDL 241125Z AUTO 18008KT 130V250 9999 OVC040 10/08 Q1022 BLU
EHAM - Amsterdam
Aktualisierung: 24-11-2020 11:55
Stark bewölkt  
Stark bewölkt  
   Wind: Süden 22.2 km/h
Wind: Süden 22.2 km/h
Temperatur: 9°C
Gefühlt: 6°C
Taupunkt: 8°C
Luftfeuchte: 94%
Luftdruck: 1021 hPa
Bewölkt: Stark bewölkt
Sichtbarkeit: 8 km
Bewölkung: leicht bewölkt 304.8 m,
Stark bewölkt 1371.6 m
EHAM 241055Z 19012KT 8000 FEW010 BKN045 09/08 Q1021 TEMPO BKN010
EHDL - Ede
Aktualisierung: 24-11-2020 12:25
Bewölkt  
Bewölkt  
   Wind: Süden 14.8 km/h
Wind: Süden 14.8 km/h
Temperatur: 10°C
Gefühlt: 8°C
Taupunkt: 8°C
Luftfeuchte: 88%
Luftdruck: 1022 hPa
Bewölkt: Bewölkt
Sichtbarkeit: More than 10 km
Bewölkung: Bewölkt 1219.2 m
EHDL 241125Z AUTO 18008KT 130V250 9999 OVC040 10/08 Q1022 BLU
EHDL - Emmen
Aktualisierung: 24-11-2020 12:25
Bewölkt  
Bewölkt  
   Wind: Süden 14.8 km/h
Wind: Süden 14.8 km/h
Temperatur: 10°C
Gefühlt: 8°C
Taupunkt: 8°C
Luftfeuchte: 88%
Luftdruck: 1022 hPa
Bewölkt: Bewölkt
Sichtbarkeit: More than 10 km
Bewölkung: Bewölkt 1219.2 m
EHDL 241125Z AUTO 18008KT 130V250 9999 OVC040 10/08 Q1022 BLU
EHAM - Den Haag
Aktualisierung: 24-11-2020 11:55
Stark bewölkt  
Stark bewölkt  
   Wind: Süden 22.2 km/h
Wind: Süden 22.2 km/h
Temperatur: 9°C
Gefühlt: 6°C
Taupunkt: 8°C
Luftfeuchte: 94%
Luftdruck: 1021 hPa
Bewölkt: Stark bewölkt
Sichtbarkeit: 8 km
Bewölkung: leicht bewölkt 304.8 m,
Stark bewölkt 1371.6 m
EHAM 241055Z 19012KT 8000 FEW010 BKN045 09/08 Q1021 TEMPO BKN010
EHAM - Apeldoorn
Aktualisierung: 24-11-2020 11:55
Stark bewölkt  
Stark bewölkt  
   Wind: Süden 22.2 km/h
Wind: Süden 22.2 km/h
Temperatur: 9°C
Gefühlt: 6°C
Taupunkt: 8°C
Luftfeuchte: 94%
Luftdruck: 1021 hPa
Bewölkt: Stark bewölkt
Sichtbarkeit: 8 km
Bewölkung: leicht bewölkt 304.8 m,
Stark bewölkt 1371.6 m
EHAM 241055Z 19012KT 8000 FEW010 BKN045 09/08 Q1021 TEMPO BKN010
EHAM - Leeuwarden
Aktualisierung: 24-11-2020 11:55
Stark bewölkt  
Stark bewölkt  
   Wind: Süden 22.2 km/h
Wind: Süden 22.2 km/h
Temperatur: 9°C
Gefühlt: 6°C
Taupunkt: 8°C
Luftfeuchte: 94%
Luftdruck: 1021 hPa
Bewölkt: Stark bewölkt
Sichtbarkeit: 8 km
Bewölkung: leicht bewölkt 304.8 m,
Stark bewölkt 1371.6 m
EHAM 241055Z 19012KT 8000 FEW010 BKN045 09/08 Q1021 TEMPO BKN010
TNCC - Willemstad
Aktualisierung: 24-11-2020 12:00
leicht bewölkt  
leicht bewölkt  
   Wind: OSO 20.4 km/h
Wind: OSO 20.4 km/h
Temperatur: 28°C
Hitzeindex: 31°C
Taupunkt: 23°C
Luftfeuchte: 74%
Luftdruck: 1011 hPa
Bewölkt: leicht bewölkt
Sichtbarkeit: More than 10 km
Bewölkung: leicht bewölkt 548.6 m
TNCC 241100Z 11011KT 9999 FEW018 28/23 Q1011 NOSIG
EHEH - Eindhoven
Aktualisierung: 24-11-2020 11:55
Klar  
Klar  
   Wind: SSW 16.7 km/h
Wind: SSW 16.7 km/h
Temperatur: 11°C
Taupunkt: 7°C
Luftfeuchte: 77%
Luftdruck: 1022 hPa
Bewölkt: Klar
Sichtbarkeit: More than 10 km
Bewölkung: Klar
EHEH 241055Z AUTO 20009KT 170V230 9999 NCD 11/07 Q1022 BLU NOSIG
EHAM - Middelburg
Aktualisierung: 24-11-2020 11:55
Stark bewölkt  
Stark bewölkt  
   Wind: Süden 22.2 km/h
Wind: Süden 22.2 km/h
Temperatur: 9°C
Gefühlt: 6°C
Taupunkt: 8°C
Luftfeuchte: 94%
Luftdruck: 1021 hPa
Bewölkt: Stark bewölkt
Sichtbarkeit: 8 km
Bewölkung: leicht bewölkt 304.8 m,
Stark bewölkt 1371.6 m
EHAM 241055Z 19012KT 8000 FEW010 BKN045 09/08 Q1021 TEMPO BKN010
EHAM - Delfzijl
Aktualisierung: 24-11-2020 11:55
Stark bewölkt  
Stark bewölkt  
   Wind: Süden 22.2 km/h
Wind: Süden 22.2 km/h
Temperatur: 9°C
Gefühlt: 6°C
Taupunkt: 8°C
Luftfeuchte: 94%
Luftdruck: 1021 hPa
Bewölkt: Stark bewölkt
Sichtbarkeit: 8 km
Bewölkung: leicht bewölkt 304.8 m,
Stark bewölkt 1371.6 m
EHAM 241055Z 19012KT 8000 FEW010 BKN045 09/08 Q1021 TEMPO BKN010

Script entwickelt von  Saratoga-weather.org Angepasst für das Template von  Weerstation Leuven

Sie finden Wetter-Infos dieser Station auch auf:

UK Metoffice

European Weather Network

WeatherCloud

Weather Underground

AWEKAS

Neuwetter

Wettersektor

Von uns verwendete Ausrüstung:

Wetterstation
Davis Vantage Pro2

Wetterprogramm
Meteobridge

WetterComputer
Computer

Davis Vantage Pro2

Meteobridge

Computer